Location: Unspecified
(0.0000°N, 0.0000°E)
Time: 23:34:08
(UTC+00:00)

S-56A Canister/Altair - Pass Details

Date: 09 October 2020
Orbit: 633 x 2499 km, 38.9° (Epoch: 28 October)

Event Time Altitude Azimuth Distance (km) Brightness Sun altitude
Rises 11:11:25 0° 288° (WNW) 4,927 11.5 78.9°
Reaches altitude 10° 11:17:17 10° 314° (NW) 4,360 11.4 80.1°
Maximum altitude 11:22:16 13° 338° (NNW) 4,392 11.5 81.0°
Drops below altitude 10° 11:27:48 10° 2° (N) 4,908 11.7 81.9°
Sets 11:35:37 0° 26° (NNE) 6,128 12.1 82.9°
